Iron Mountain, MI

4:03 AM CST on January 24, 2018 (GMT -0600)
Ford

Weather History for KIMT - September, 2012

Change the Weather History Date:

Monday, September 3, 2012

  Actual Average Record
Temperature  
Mean Temperature 70 °F -  
Max Temperature 86 °F 72 °F 92 °F (1983)
Min Temperature 57 °F 49 °F 25 °F (1946)
Cooling Degree Days 6    
Growing Degree Days 20 (Base 50)    
Moisture  
Dew Point 64 °F    
Average Humidity 84    
Maximum Humidity 100    
Minimum Humidity 53    
Precipitation  
Precipitation 0.12 in - - ()
Sea Level Pressure  
Sea Level Pressure 29.90 in    
Wind  
Wind Speed 3 mph (SSW)    
Max Wind Speed 12 mph    
Max Gust Speed 20 mph    
Visibility 7 miles    
Events Fog , Rain , Thunderstorm    
Averages and records for this station are not official NWS values.
T = Trace of Precipitation, MM = Missing Value Source: NWS Daily Summary

Daily Weather History Graph

Daily Weather History Graph

Search for Another Location

Airport or City:

Trip Planner

Search our weather history database for the weather conditions in past years. The results will help you decide how hot, cold, wet, or windy it might be!

Date:

Astronomy

Sep. 03, 2012 Rise Set
Actual Time 6:16 AM CDT 7:25 PM CDT
Civil Twilight 5:45 AM CDT 7:56 PM CDT
Nautical Twilight 5:09 AM CDT 8:32 PM CDT
Astronomical Twilight 4:30 AM CDT 9:11 PM CDT
Moon 8:29 PM CDT (9/3) 9:38 AM CDT (9/3)
Length of Visible Light 14h 10m
Length of Day
13h 09m
Waning Gibbous, 90% of the Moon is Illuminated
Sep 3
Waning Gibbous
Sep 8
Last Quarter
Sep 15
New
Sep 22
First Quarter
Sep 29
Full

Hourly Weather History & Observations

Time (CDT) Temp. Heat Index Dew Point Humidity Pressure Visibility Wind Dir Wind Speed Gust Speed Precip Events Conditions
12:54 AM 59.0 °F - 55.9 °F 90% 29.97 in 10.0 mi Calm Calm - N/A   Clear
1:54 AM 57.9 °F - 55.0 °F 90% 29.96 in 10.0 mi Calm Calm - N/A   Clear
2:54 AM 57.9 °F - 55.9 °F 93% 29.95 in 10.0 mi Calm Calm - N/A   Clear
3:54 AM 57.9 °F - 55.0 °F 90% 29.94 in 10.0 mi Calm Calm - N/A   Clear
5:54 AM 60.1 °F - 57.0 °F 90% 29.93 in 10.0 mi Calm Calm - N/A   Clear
6:54 AM 63.0 °F - 55.0 °F 75% 29.93 in 10.0 mi SSE 4.6 mph - N/A   Clear
7:54 AM 66.9 °F - 55.0 °F 66% 29.93 in 10.0 mi SSE 5.8 mph - N/A   Clear
8:54 AM 72.0 °F - 55.9 °F 57% 29.92 in 10.0 mi SSE 8.1 mph - N/A   Clear
9:54 AM 77.0 °F - 59.0 °F 54% 29.92 in 10.0 mi South 6.9 mph - N/A   Clear
10:54 AM 82.9 °F 84.4 °F 64.0 °F 53% 29.90 in 10.0 mi SSW 8.1 mph - N/A   Partly Cloudy
11:54 AM 84.9 °F 87.1 °F 66.0 °F 53% 29.89 in 10.0 mi Variable 6.9 mph - N/A   Partly Cloudy
12:54 PM 84.0 °F 86.5 °F 66.9 °F 56% 29.88 in 10.0 mi SSW 6.9 mph - N/A   Overcast
1:21 PM 84.2 °F 86.6 °F 66.2 °F 55% 29.88 in 10.0 mi WSW 5.8 mph - N/A Thunderstorm Scattered Clouds
1:54 PM 75.0 °F - 70.0 °F 84% 29.87 in 2.5 mi West 11.5 mph 19.6 mph 0.11 in Rain Heavy Rain
2:03 PM 75.2 °F - 69.8 °F 83% 29.88 in 6.0 mi WNW 5.8 mph - 0.00 in Rain , Thunderstorm Light Rain
2:20 PM 73.4 °F - 69.8 °F 88% 29.88 in 10.0 mi WNW 6.9 mph - 0.00 in Rain , Thunderstorm Light Rain
2:54 PM 72.0 °F - 68.0 °F 87% 29.88 in 10.0 mi NW 6.9 mph - 0.01 in Thunderstorm Mostly Cloudy
3:11 PM 71.6 °F - 68.0 °F 88% 29.88 in 10.0 mi Calm Calm - N/A Thunderstorm Mostly Cloudy
3:47 PM 71.6 °F - 66.2 °F 83% 29.90 in 10.0 mi ENE 4.6 mph - 0.00 in Thunderstorm Mostly Cloudy
3:54 PM 73.0 °F - 68.0 °F 84% 29.89 in 10.0 mi Calm Calm - 0.00 in Thunderstorm Mostly Cloudy
4:08 PM 73.4 °F - 68.0 °F 83% 29.87 in 10.0 mi Calm Calm - 0.00 in   Mostly Cloudy
4:54 PM 75.0 °F - 69.1 °F 82% 29.86 in 10.0 mi Calm Calm - 0.00 in   Partly Cloudy
5:54 PM 73.0 °F - 69.1 °F 87% 29.89 in 10.0 mi SSE 6.9 mph - N/A   Scattered Clouds
6:54 PM 71.1 °F - 66.0 °F 84% 29.89 in 10.0 mi South 5.8 mph - N/A   Clear
7:54 PM 69.1 °F - 66.0 °F 90% 29.88 in 10.0 mi Calm Calm - N/A   Clear
8:54 PM 66.0 °F - 64.9 °F 96% 29.89 in 7.0 mi Calm Calm - N/A   Clear
9:25 PM 64.4 °F - 62.6 °F 94% 29.91 in 1.2 mi SSE 3.5 mph - N/A   Partly Cloudy
9:27 PM 64.4 °F - 62.6 °F 94% 29.91 in 0.8 mi Calm Calm - N/A   Mist
9:35 PM 64.4 °F - 62.6 °F 94% 29.91 in 1.2 mi Calm Calm - N/A   Partly Cloudy
9:37 PM 64.4 °F - 62.6 °F 94% 29.91 in 3.0 mi Calm Calm - N/A   Partly Cloudy
9:54 PM 66.0 °F - 64.9 °F 96% 29.91 in 10.0 mi NE 4.6 mph - N/A   Scattered Clouds
10:35 PM 64.4 °F - 64.4 °F 100% 29.91 in 5.0 mi Calm Calm - N/A   Partly Cloudy
10:41 PM 64.4 °F - 64.4 °F 100% 29.92 in 1.8 mi South 3.5 mph - N/A   Scattered Clouds
10:45 PM 64.4 °F - 64.4 °F 100% 29.91 in 0.8 mi South 3.5 mph - N/A   Mist
10:51 PM 64.4 °F - 64.4 °F 100% 29.91 in 0.2 mi South 3.5 mph - N/A Fog Fog
10:54 PM 64.9 °F - 64.0 °F 97% 29.90 in 0.2 mi South 3.5 mph - N/A Fog Fog
11:54 PM 64.9 °F - 64.0 °F 97% 29.89 in 0.2 mi Calm Calm - N/A Fog Fog